星链-32617 (STARLINK-32617)

导读 | 豆包AI

STARLINK-32617是美国太空探索技术公司(SpaceX)发射的星链(Starlink)卫星,属于星链互联网星座的组成部分,于北京时间2024年11月24日08:00发射升空,主要用于为全球提供低延迟、高速率的卫星互联网服务,进一步扩充星链星座的规模,提升全球网络覆盖能力。

基本信息
目录编号:
62076
目录名称:
STARLINK-32617
国际标识:
2024-217V
轨道中心:
EARTH
卫星名称:
星链-32617
卫星全名:
星链-32617 (STARLINK-32617)
卫星状态:
在轨 (已飞行523 天)
发射日期:
2024-11-24 UTC
国别 :
美国 (US)
星等 :
--
轨道信息
数据来源 国际轨道数据 AOE轨道数据
星历时间 2026-04-30T19:44:43+0800
15小时前
查看轨道信息
2026-04-27T12:00:00+0800
3天前
查看轨道信息
半长轴 6853.313km 6853.368km
偏心率 0.0001564 0.0001186
轨道倾角 53.158° 53.156°
近地点辐角 109.043° 81.555°
升交点赤经 300.398° 315.832°
平近点角 251.074° 324.514°
近地点 474.104km 474.418km
远地点 476.248km 476.044km
周期 94.105分钟 94.106分钟
每日圈数 15.302133 15.301948
详细信息
固有亮度:
5
最大亮度:
2.5
卫星平台:
Starlink V1.0
覆盖范围:
全球
运营商:
太空探索技术公司
运营商所在国:
美国
制造商(研发单位):
太空探索技术公司
制造商所在国:
美国
使用方式:
暂无
卫星简介
Starlink 计划是 SpaceX 推出的全球卫星互联网项目,通过发射低轨道卫星,为全球尤其是偏远地区提供高速、低延迟的互联网服务。自 2019 年起,Starlink 已部署数千颗卫星,旨在缩小全球数字鸿沟,推动互联网普及。该项目还为军事、航空等行业提供通信支持,带来广泛经济效益。
2D轨道图
3D轨道图
轨道高度分析图
轨道倾角分析图
轨道综合分析图
查看轨道综合分析图